Weather History for Viroqua, WI

Change the Weather History Date:

Thursday, December 29, 2011

  Actual Average (KLSE) Record (KLSE)
Temperature  
Mean Temperature 34 °F 18 °F  
Max Temperature 40 °F 26 °F 53 °F (1999)
Min Temperature 29 °F 11 °F -22 °F (1880)
Degree Days  
Heating Degree Days 30 47  
Month to date heating degree days 1250  
Since 1 July heating degree days 2750  
Cooling Degree Days 0 0  
Month to date cooling degree days 0  
Year to date cooling degree days 782  
Moisture  
Dew Point 30 °F    
Average Humidity 88    
Maximum Humidity 100    
Minimum Humidity 70    
Precipitation  
Precipitation 0.00 in 0.03 in 0.71 in (1972)
Month to date precipitation 1.29  
Year to date precipitation 32.99  
Snow  
Snow 0.00 in 0.30 in 3.80 in (1946)
Month to date snowfall 10.7  
Since 1 July snowfall 15.0  
Snow Depth -    
Sea Level Pressure  
Sea Level Pressure 29.57 in    
Wind  
Wind Speed 8 mph (NW)    
Max Wind Speed 16 mph    
Max Gust Speed 22 mph    
Visibility 10 miles    
Events      
T = Trace of Precipitation, MM = Missing Value Source: NWS Daily Summary

Daily Weather History Graph

Daily Weather History Graph

Search for Another Location

Airport:

Trip Planner

Search our weather history database for the weather conditions in past years. The results will help you decide how hot, cold, wet, or windy it might be!

Date:

Astronomy

Dec. 29, 2011 Rise Set
Actual Time 7:36 AM CST 4:34 PM CST
Civil Twilight 7:03 AM CST 5:07 PM CST
Nautical Twilight 6:27 AM CST 5:43 PM CST
Astronomical Twilight 5:52 AM CST 6:18 PM CST
Moon 10:20 AM CST (12/29) 10:22 PM CST (12/29)
Length of Visible Light 10h 03m
Length of Day
8h 58m
Waxing Crescent, 27% of the Moon is Illuminated
Dec 29
Waxing Crescent
Jan 1
First Quarter
Jan 9
Full
Jan 16
Last Quarter
Jan 23
New

Hourly Weather History & Observations

Time (CST) Temp. Windchill Dew Point Humidity Pressure Visibility Wind Dir Wind Speed Gust Speed Precip Events Conditions
12:15 AM 30.7 °F 23.3 °F 27.5 °F 88% 29.63 in 10.0 mi South 8.1 mph - N/A   Overcast
12:35 AM 30.7 °F 24.9 °F 27.5 °F 88% 29.63 in 10.0 mi South 5.8 mph - N/A   Overcast
12:55 AM 30.9 °F 27.5 °F 27.9 °F 88% 29.62 in 10.0 mi South 3.5 mph - N/A   Overcast
1:35 AM 31.3 °F 24.7 °F 28.6 °F 90% 29.58 in 10.0 mi SSE 6.9 mph - N/A   Overcast
1:55 AM 31.5 °F 23.5 °F 29.1 °F 91% 29.56 in 10.0 mi SE 9.2 mph - N/A   Overcast
2:15 AM 31.1 °F 22.4 °F 29.3 °F 93% 29.55 in 10.0 mi SE 10.4 mph - N/A   Overcast
2:35 AM 30.9 °F 22.2 °F 30.0 °F 96% 29.53 in 10.0 mi SE 10.4 mph - N/A   Overcast
2:55 AM 31.1 °F 21.9 °F 30.2 °F 96% 29.52 in 10.0 mi SE 11.5 mph - N/A   Overcast
3:15 AM 31.1 °F 23.1 °F 30.2 °F 96% 29.51 in 10.0 mi SE 9.2 mph - N/A   Overcast
7:15 AM 29.3 °F 20.8 °F 29.3 °F 100% 29.43 in 10.0 mi SSW 9.2 mph - N/A   Clear
7:35 AM 29.7 °F 22.0 °F 29.7 °F 100% 29.44 in 10.0 mi SW 8.1 mph - N/A   Clear
8:35 AM 31.5 °F 23.5 °F 30.9 °F 98% 29.44 in 10.0 mi WSW 9.2 mph - N/A   Clear
8:55 AM 32.9 °F 24.1 °F 31.6 °F 95% 29.45 in 10.0 mi West 11.5 mph - N/A   Clear
9:15 AM 34.5 °F 27.3 °F 31.5 °F 89% 29.46 in 10.0 mi West 9.2 mph - N/A   Clear
9:35 AM 35.2 °F 27.1 °F 30.4 °F 82% 29.46 in 10.0 mi WNW 11.5 mph - N/A   Clear
9:55 AM 35.8 °F 27.8 °F 30.2 °F 80% 29.48 in 10.0 mi WNW 11.5 mph 18.4 mph N/A   Clear
10:15 AM 36.3 °F 28.9 °F 30.4 °F 79% 29.49 in 10.0 mi West 10.4 mph 18.4 mph N/A   Clear
10:35 AM 36.9 °F 29.6 °F 30.2 °F 77% 29.49 in 10.0 mi West 10.4 mph - N/A   Scattered Clouds
10:55 AM 37.6 °F 29.1 °F 30.2 °F 75% 29.51 in 10.0 mi WNW 13.8 mph - N/A   Scattered Clouds
11:15 AM 37.8 °F 29.8 °F 30.4 °F 75% 29.51 in 10.0 mi WNW 12.7 mph 20.7 mph N/A   Overcast
11:35 AM 37.6 °F 28.4 °F 30.4 °F 75% 29.51 in 10.0 mi NW 16.1 mph 21.9 mph N/A   Mostly Cloudy
11:55 AM 38.7 °F 29.8 °F 30.6 °F 73% 29.51 in 10.0 mi NW 16.1 mph 19.6 mph N/A   Scattered Clouds
12:35 PM 39.6 °F 32.1 °F 30.6 °F 70% 29.52 in 10.0 mi NW 12.7 mph - N/A   Clear
12:55 PM 39.7 °F 33.2 °F 30.6 °F 70% 29.53 in 10.0 mi NW 10.4 mph - N/A   Clear
1:35 PM 40.1 °F 34.7 °F 30.9 °F 70% 29.54 in 10.0 mi WNW 8.1 mph - N/A   Clear
1:55 PM 40.3 °F 33.4 °F 31.1 °F 70% 29.54 in 10.0 mi NW 11.5 mph - N/A   Clear
2:35 PM 40.3 °F 33.9 °F 31.3 °F 70% 29.56 in 10.0 mi NW 10.4 mph - N/A   Clear
2:55 PM 39.7 °F 33.2 °F 31.5 °F 72% 29.57 in 10.0 mi WNW 10.4 mph - N/A   Clear
3:15 PM 38.8 °F 32.6 °F 31.1 °F 74% 29.58 in 10.0 mi NW 9.2 mph - N/A   Clear
3:35 PM 37.2 °F 29.6 °F 30.9 °F 78% 29.59 in 10.0 mi NW 11.5 mph - N/A   Scattered Clouds
4:35 PM 32.2 °F 23.2 °F 30.2 °F 92% 29.61 in 10.0 mi NW 11.5 mph - N/A   Mostly Cloudy
4:55 PM 32.2 °F 23.8 °F 30.0 °F 92% 29.62 in 10.0 mi NNW 10.4 mph - N/A   Overcast
5:15 PM 32.0 °F 24.8 °F 30.0 °F 92% 29.62 in 10.0 mi NW 8.1 mph - N/A   Overcast
5:35 PM 32.0 °F 25.6 °F 30.0 °F 92% 29.63 in 10.0 mi NNW 6.9 mph - N/A   Overcast
6:35 PM 32.0 °F 24.8 °F 30.4 °F 94% 29.65 in 10.0 mi NNW 8.1 mph - N/A   Overcast
6:55 PM 31.8 °F 25.4 °F 29.7 °F 92% 29.65 in 10.0 mi NNW 6.9 mph - N/A   Overcast
7:15 PM 31.6 °F 27.0 °F 29.3 °F 91% 29.66 in 10.0 mi NW 4.6 mph - N/A   Overcast
7:35 PM 31.6 °F 27.0 °F 29.3 °F 91% 29.66 in 10.0 mi NNW 4.6 mph - N/A   Overcast
8:15 PM 31.6 °F - 29.3 °F 91% 29.66 in 10.0 mi Calm Calm - N/A   Overcast
8:35 PM 31.5 °F 28.1 °F 29.3 °F 92% 29.66 in 10.0 mi North 3.5 mph - N/A   Overcast
8:55 PM 31.3 °F - 29.3 °F 92% 29.66 in 10.0 mi Calm Calm - N/A   Overcast
9:35 PM 30.7 °F - 30.4 °F 99% 29.65 in 10.0 mi Calm Calm - N/A   Overcast
9:55 PM 30.2 °F 25.4 °F 30.2 °F 100% 29.65 in 7.0 mi ENE 4.6 mph - N/A   Overcast
10:15 PM 29.8 °F 26.3 °F 29.8 °F 100% 29.64 in 7.0 mi East 3.5 mph - N/A   Overcast
10:35 PM 29.5 °F 25.9 °F 29.5 °F 100% 29.64 in 7.0 mi East 3.5 mph - N/A   Mostly Cloudy
10:55 PM 29.3 °F 21.5 °F 29.3 °F 100% 29.63 in 7.0 mi ENE 8.1 mph - N/A   Scattered Clouds
11:15 PM 29.8 °F 24.9 °F 29.8 °F 100% 29.64 in 7.0 mi East 4.6 mph - N/A   Clear
11:35 PM 29.5 °F 24.5 °F 29.5 °F 100% 29.63 in 7.0 mi ESE 4.6 mph - N/A   Scattered Clouds
11:55 PM 29.7 °F 22.8 °F 29.7 °F 100% 29.63 in 7.0 mi East 6.9 mph - N/A   Scattered Clouds